Location: Newark
(40.3820°N, 3.6624°W)
Time: 04:54:46
(UTC+00:00)

N. Korean satellite - Pass Details

Date: 26 November 2019
Orbit: 455 x 506 km, 97.2° (Epoch: 12 December)

Event Time Altitude Azimuth Distance (km) Brightness Sun altitude
Rises 06:17:35 0° 8° (N) 2,596 10.2 -10.5°
Reaches altitude 10° 06:19:42 10° 5° (N) 1,701 9.2 -10.1°
Maximum altitude 06:23:19 64° 284° (WNW) 546 6.5 -9.5°
Drops below altitude 10° 06:26:51 10° 203° (SSW) 1,658 9.3 -8.8°
Sets 06:28:54 0° 200° (SSW) 2,524 10.2 -8.5°
